Regional Weather Roundup
Issued by NWS Newport/Morehead, NC

Home | Current Version | Previous Version | Text Only | Print | Product List | Glossary On
Versions: 1 2 3 4 5 6 7 8 9 10 11 12 13 14 15 16 17 18 19 20 21 22 23 24 25 26 27 28 29 30 31 32 33 34 35 36 37 38 39 40 41 42 43 44 45 46 47 48 49 50
000
ASUS42 KMHX 221225
RWRMHX
WEATHER ROUNDUP FOR EASTERN NORTH CAROLINA
NATIONAL WEATHER SERVICE NEWPORT/MOREHEAD CITY NC
700 AM EST MON JAN 22 2018

NOTE: "FAIR" INDICATES FEW OR NO CLOUDS BELOW 12,000 FEET
WITH NO SIGNIFICANT WEATHER AND/OR OBSTRUCTIONS TO VISIBILITY

NCZ015>017-031-032-045>047-102-103-221300-
NORTH COAST

CITY           SKY/WX    TMP DP  RH WIND       PRES   REMARKS
EDENTON        FAIR      38  37  94 CALM      30.23R
ELIZABETH CITY FAIR      38  38 100 SE7       30.21R
KITTY HAWK     FAIR      45  39  81 CALM      30.21R
MANTEO         FAIR      38  34  88 N6        30.23R

$$

NCZ045>047-081-094-103-104-221300-
CENTRAL COAST

CITY           SKY/WX    TMP DP  RH WIND       PRES   REMARKS
FRISCO         NOT AVBL

$$

NCZ095-097-098-100-101-221300-
SOUTHERN COAST

CITY           SKY/WX    TMP DP  RH WIND       PRES   REMARKS
BEAUFORT       FAIR      37  37 100 CALM      30.22F
CEDAR ISLAND   NOT AVBL
JACKSONVILLE   FAIR      37  36  96 CALM      30.22R
PINEY ISLAND   NOT AVBL
WILMINGTON     FAIR      37  36  96 CALM      30.23R


$$

NCZ011>013-027>030-043-044-078>080-089-090>093-098-221300-
COASTAL PLAIN

CITY           SKY/WX    TMP DP  RH WIND       PRES   REMARKS
AHOSKIE        FAIR      36  36 100 CALM      30.22R
CLINTON        FAIR      37  37 100 CALM      30.22S
ELIZABETHTOWN  NOT AVBL
GOLDSBORO      FAIR      38  35  90 CALM      30.19S
GREENVILLE     FAIR      36  36 100 CALM      30.23R
HAVELOCK       CLEAR     34  33  96 E3        30.22F
KENANSVILLE    FAIR      34  34 100 CALM      30.22R
KINSTON        FAIR      36  36 100 SW3       30.22R
NEW BERN       FAIR      33  33 100 CALM      30.23S
RICHLANDS      FAIR      35  34  96 CALM      30.23R
ROCKY MOUNT    NOT AVBL
WASHINGTON     FAIR      36  34  94 CALM      30.24R
WHITEVILLE     FAIR      37  35  94 CALM      30.20F

$$

AMZ130-135-150-152-154-156-158-170-250-252-270-ANZ085-086-088-633-658-670-221300-
MARINE OBSERVATIONS

STATION/POSITION TIME  TEMP    WIND        PRES    WAVE   SWELL
                       AIR SEA DIR/SP/G            HT/PER HT/PER
                 (UTC) (F)     (DEG/KT/KT) (MB)    (FT/S) (FT/S)
CHESAPEAKE LIGHT NOT AVBL
64 E VA BEACH    1150   55 58  220/  4/  6 1023.6    1/10   2/10
DUCK             1200   46 41  250/  5/  6 1022.7
2 E DUCK         1200      41                N/A     1/10
OREGON INLET     1200   42 43  180/  5/  7 1023.0
13E OREGON INLT  1148      40                N/A     1/10   2/10
HATTERAS CG      1200   47 51  330/  1/  2 1023.2
DIAMOND BUOY     1210   62 73  280/  2/  4 1023.9
CAPE LOOKOUT     1200          100/  2/  2 1023.6
BEAUFORT LAB     1200   42 47  140/  1/  2 1023.3
30 SE NEW RVR IN 1108   56 59  360/  2/  2 1023.7
30 SE NEW RVR IN 1200      59                N/A     1/11
27 SE WRIGHTSVLE 1108   57 62   40/  4/  4 1023.2
5 SE WRIGHTSVLE  1208   47 46   60/  2/  4 1022.9
225 S CAPE HAT   1150   67 70   90/  6/  8 1023.8    2/10   2/10
41 SE CHARLESTON 1210   67 70  120/  2/  4 1021.7

$$




USA.gov is the U.S. government's official web portal to all federal, state and local government web resources and services.